Regional Weather Roundup
Issued by NWS

Home | Current Version | Previous Version | Text Only | Print | Product List | Glossary On
Versions: 1 2 3 4 5 6 7 8 9 10 11 12 13 14 15 16 17 18 19 20 21 22 23 24 25 26 27 28 29 30 31 32 33 34 35 36 37 38 39 40 41 42 43 44 45 46 47 48 49 50
287
ASUS43 KMPX 240010
RWRMN
WEATHER ROUNDUP FOR MINNESOTA
NATIONAL WEATHER SERVICE TWIN CITIES/CHANHASSEN MN
700 PM CDT MON OCT 23 2017


NOTE: "FAIR" INDICATES FEW OR NO CLOUDS BELOW 12,000 FEET WITH NO
SIGNIFICANT WEATHER AND/OR OBSTRUCTIONS TO VISIBILITY. N/A MEANS
CURRENT SKY AND/OR WEATHER CONDITIONS ARE NOT AVAILABLE.

MNZ060>063-068>070-240100-
   Twin Cities Metro

CITY           SKY/WX    TMP DP  RH WIND       PRES   REMARKS
TWIN CITIES    CLOUDY    49  35  58 NW17      29.85R
6HR MIN TEMP:  49; 6HR MAX TEMP:  61;

ST PAUL        CLOUDY    49  34  56 NW21G28   29.85R
CRYSTAL        CLOUDY    48  31  51 NW14G24   29.85R
BLAINE         CLOUDY    48  34  57 NW20G30   29.84R
LAKEVILLE      CLOUDY    46  36  66 NW16G31   29.85R
EDEN PRAIRIE   CLOUDY    50  29  44 NW13G26   29.84R
6HR MIN TEMP:  50; 6HR MAX TEMP:  59;

SOUTH ST PAUL  CLOUDY    49  33  55 NW12G24   29.84R
LAKE ELMO      CLOUDY    46  36  66 NW17G23   29.84R
$$
MNZ001>005-007-008-013>017-022>024-027-028-240100-
   Northwest Minnesota

CITY           SKY/WX    TMP DP  RH WIND       PRES   REMARKS
BEMIDJI        CLEAR     39  27  61 NW17G23   29.94R
HALLOCK        CLOUDY    43  28  56 N23G32    30.06R
ROSEAU         CLOUDY    43  32  65 NW15      30.00R
WARROAD        CLOUDY    43  32  65 NW14G22   30.00R
THIEF RVR FALL CLOUDY    40  27  59 N17       30.04R
CROOKSTON      CLEAR     41  28  60 N21       30.05R
FOSSTON        CLEAR     37  27  65 NW15      30.01R
DETROIT LAKES  CLEAR     43  32  65 N14       29.98R
MOORHEAD       CLOUDY    48  30  49 N16       30.02R
PARK RAPIDS    CLEAR     43  29  57 NW17G26   29.93R
MAHNOMEN       FAIR      41  28  60 N16G23    30.00R
$$
MNZ006-009>011-018-025>026-240100-
   North Central Minnesota

CITY           SKY/WX    TMP DP  RH WIND       PRES   REMARKS
BAUDETTE       CLOUDY    42  34  73 NW24G35   29.94R
FLAG ISLAND    CLOUDY    43  36  75 NW25      29.97R
INTL FALLS     CLOUDY    43  33  68 NW14      29.90R
6HR MIN TEMP:  43; 6HR MAX TEMP:  50; 6HR PCP: TRACE;

WASKISH        PTCLDY    43  30  61 NW12G18   29.95R
BIG FORK       CLOUDY    43  34  70 NW3       29.90R
LONGVILLE      MOCLDY    43  28  56 NW10G20   29.91R
GRAND RAPIDS   CLOUDY    43  34  70 N18       29.90R
CRANE LAKE     CLOUDY    43  37  81 NW14G24   29.87R
ORR            CLOUDY    43  34  70 NW10G20   29.85R
COOK           CLOUDY    43  36  75 NW9G18    29.87R
WALKER         FAIR      41  26  56 N14G20    29.93R
$$
MNZ012-019>021-037-240100-
   Northeast Minnesota

CITY           SKY/WX    TMP DP  RH WIND       PRES   REMARKS
DULUTH         CLOUDY    45  42  89 N16G32    29.78R
6HR MIN TEMP:  45; 6HR MAX TEMP:  60; 6HR PCP: TRACE;

ELY            CLOUDY    43  36  75 NW16G25   29.81R
HIBBING        CLOUDY    41  36  82 NW22G32   29.84R
EVELETH        CLOUDY    42  40  92 NW14G23   29.84R
DULUTH HARBOR  CLOUDY    50  45  81 NW14G22   29.79R
TWO HARBORS    CLOUDY    52  43  71 NW12G21   29.74R
SILVER BAY     CLOUDY    50  41  71 NW12G17   29.73R
GRAND MARAIS     N/A     54  43  66 NW12G23   29.68S
G MARAIS ARPRT CLOUDY    46  37  71 NW10G21   29.72S
$$
MNZ029>031-032-039>041-046>048-054>057-064-240100-
   West Central Minnesota

CITY           SKY/WX    TMP DP  RH WIND       PRES   REMARKS
FERGUS FALLS   CLEAR     46  34  61 N7        29.99R
WHEATON        RAIN      50  36  57 NW18G28   30.01R
MORRIS         PTCLDY    50  32  50 NW14G23   29.95S
ALEXANDRIA     CLEAR     47  32  56 N13       29.94R
ELBOW LAKE     MOCLDY    49  34  56 W16       29.96S
WADENA         CLEAR     45  30  57 NW15G21   29.93R
GLENWOOD       CLEAR     46  34  61 NW10      29.94R
APPLETON       CLEAR     52  30  43 NW14      29.96S
BENSON         CLEAR     50  30  46 N15       29.96S
ORTONVILLE     PTCLDY    52  34  50 NW16      29.98S
MADISON        CLEAR     54  34  47 NW14G25   29.98R
WILLMAR        FAIR      50  34  53 NW13G22   29.94R
$$
MNZ033>034-036-042>043-049>051-058-059-240100-
   Central Minnesota

CITY           SKY/WX    TMP DP  RH WIND       PRES   REMARKS
ST CLOUD       CLOUDY    48  30  49 NW10      29.88R
6HR MIN TEMP:  48; 6HR MAX TEMP:  52;

SAUK CENTRE    FAIR      47  28  47 NW17G32   29.92R
PAYNESVILLE    CLOUDY    48  32  54 NW12G17   29.92R
AITKIN         CLOUDY    43  28  56 NW9       29.87R
PINE RIVER     CLEAR     43  27  52 NW15G24   29.95R
BRAINERD       CLOUDY    47  27  45 NW18G24   29.90R
STAPLES        CLEAR     43  25  49 NW15G25   29.92R
LONG PRAIRIE   FAIR      45  28  53 W14G21    29.92R
LITTLE FALLS   CLEAR     45  19  36 NW9       29.90R
LITCHFIELD     CLOUDY    52  34  50 NW16G24   29.91R
BUFFALO        CLOUDY    49  26  41 NW9G18    29.88S
MAPLE LAKE     CLOUDY    50  32  49 NW13      29.89S
HUTCHINSON     CLOUDY    51  34  51 NW14G21   29.91R
$$
MNZ037-044-045-052-053-240100-
   East Central Minnesota

CITY           SKY/WX    TMP DP  RH WIND       PRES   REMARKS
PRINCETON      CLOUDY    48  34  57 NW9       29.87R
MORA           CLOUDY    45  32  61 NW15G25   29.86S
CAMBRIDGE      CLOUDY    50  34  53 NW12G21   29.85S
RUSH CITY      CLOUDY    47  35  63 NW14G26   29.84R
MOOSE LAKE     CLOUDY    45  37  76 NW10G17   29.82R
HINCKLEY       CLOUDY    46  37  71 NW16G22   29.84R
CLOQUET        CLOUDY    45  37  76 NW20G25   29.82R
MCGREGOR       CLOUDY    45  34  65 NW15G22   29.87R
$$
MNZ071>073-080-081-089-090-097-098-240100-
   Southwest Minnesota

CITY           SKY/WX    TMP DP  RH WIND       PRES   REMARKS
MONTEVIDEO     CLEAR     50  30  46 N15       29.95F
GRANITE FALLS  CLEAR     51  32  47 NW10G17   29.97R
CANBY          CLEAR     51  32  48 W13G21    30.00S
MARSHALL       PTCLDY    49  31  49 NW17      29.96F
REDWOOD FALLS  CLOUDY    51  28  41 NW12G21   29.93R
OLIVIA         CLOUDY    50  32  50 NW15      29.92S
PIPESTONE      MOCLDY    48  30  49 NW13G18   30.00S
WORTHINGTON    MOCLDY    50  28  42 NW18G26   29.98S
JACKSON        CLOUDY    48  30  49 NW14      29.95R
TRACY          PTCLDY    51  32  48 NW13G18   29.97R
SLAYTON        CLOUDY    49  31  49 NW18G26   29.98S
$$
MNZ065>067-074>077-082>085-091>093-240100-
   South Central Minnesota

CITY           SKY/WX    TMP DP  RH WIND       PRES   REMARKS
NEW ULM          N/A     48  34  57 NW10      29.91S
ST JAMES       CLOUDY    50  34  53 W16G22    29.92S
FAIRMONT       CLOUDY    50  32  50 NW18      29.91F
GLENCOE        CLOUDY    51  32  48 NW13G20   29.88S
FARIBAULT      CLOUDY    48  34  57 NW15G21   29.86R
OWATONNA       CLOUDY    48  30  49 NW29G38   29.85R
WASECA         CLOUDY    50  32  50 NW14G24   29.88R
$$
MNZ078>079-086>088-094>096-240100-
   Southeast Minnesota

CITY           SKY/WX    TMP DP  RH WIND       PRES   REMARKS
ROCHESTER      LGT RAIN  46  41  82 NW25G32   29.80S
6HR MIN TEMP:  46; 6HR MAX TEMP:  59; 6HR PCP: TRACE;

RED WING       CLOUDY    50  37  62 NW7G20    29.79S
STANTON        CLOUDY    49  36  60 NW25G32   29.83R
DODGE CENTER   CLOUDY    46  36  66 NW18      29.82S
WINONA         MOCLDY    52  39  62 NW12G22   29.75S
AUSTIN         CLOUDY    48  34  57 NW21G32   29.82F
PRESTON        CLOUDY    47  39  74 NW17G26   29.78F
$$
ABBREVIATIONS USED IN REMARKS
   TC - TEMPERATURES IN CELSIUS
  WCI - WIND CHILL INDEX
   HX - HEAT INDEX
  VSB - VISIBILITY
$$




USA.gov is the U.S. government's official web portal to all federal, state and local government web resources and services.